Location: De Greiden
(52.9496°N, 5.9137°E)
Time: 23:21:27
(UTC+00:00)

Cosmos 1844 Rocket - Pass Details

Date: 24 January 2021
Orbit: 825 x 843 km, 71.0° (Epoch: 01 March)

Event Time Altitude Azimuth Distance (km) Brightness Sun altitude
Rises 17:00:36 0° 184° (S) 3,388 6.2 -8.2°
Reaches altitude 10° 17:03:09 10° 178° (S) 2,457 5.4 -8.5°
Maximum altitude 17:08:23 41° 110° (ESE) 1,209 3.2 -9.3°
Drops below altitude 10° 17:13:38 10° 42° (NE) 2,464 4.6 -10.0°
Enters shadow 17:14:07 - 40° (NE) 2,638 4.8 -10.1°
